DELTA 1 DEB, 42565

Orbit data source: Space-Track

DELTA 1 DEB, 42565 is space debris in SSO originally from a launch on Sun, 23 Jul 1972 UTC launched from the Air Force Western Test Range (AFWTR). Debris objects in space refer to the collection of defunct objects orbiting the Earth. Examples of debris include non-operational satellites, rocket bodies, and fragments generated from explosions, collisions, or faulty payload assembly.

Loading next visibility...
Identifier
42565, 1972-058JY
Orbit
SSO
Country
Flag of USUS
Related business
Manufacturer
Unknown
Mission
Spacecraft
Bus & Motor
Unknown
Mass
Unknown
Launch date (UTC)
1972-07-23 (54 years ago)
Launch vehicle
Unknown
Launch site
Air Force Western Test Range (AFWTR)
Object type
Payload
Rocket body
Debris
Shape & HBR
Unknown shape, 0.1 m
Radar Cross Section
Small (<0.1 m²)

Expand to show TLE details & history
Last TLE update: 2 days ago

TLE from 2 days ago
0 DELTA 1 DEB
1 42565U 72058JY  26148.17002547  .00000658  00000-0  15874-3 0  9998
2 42565  97.8711 304.8395 0034913 243.4744 116.2873 14.55838035663552
Epoch: 2026-05-28T04:04Z
TLE epoch observation values (Epoch: 2026-05-28T04:04:50.200Z)
Latitude
-0.0001°
Longitude
-2.08826°
Altitude
720.66 km
Speed
7.489 km/s
True Right ascension
20h 19m 21s
True Declination
0° 00' 00"
Sunlit
Object was in full shadow at epoch
Visualization orbit readout
Latitude
Unknown
Longitude
Unknown
Altitude
Unknown
Speed
Unknown
Apparent Right ascension
Unknown
Apparent Declination
Unknown
Sunlit
N/A
Visualization observer readout
Local Sidereal Time
00:30:40
Azimuth
Unknown
Elevation
Unknown
Doppler factor
Unknown
Orbital elements
Apogee altitude
728.441 km
Perigee altitude
678.992 km
Semi-major axis
7,081.853 km
Eccentricity
0.00349
Inclination
97.8711°
RAAN
304.8395°
Arg. of periapsis
243.4744°
True anomaly
116.64531°
Mean anomaly
116.2873°
Eccentric anomaly
116.46637°
Mean motion
3.64186 °/min
Orbital period
98.85 mins
BSTAR
0.00015874
Loading maneuver chart data...
Computing Atmospheric mass density...
Loading historical data...
Loading historical data...
Loading historical data...
Loading historical data...
Loading historical data...
Loading historical data...
Loading historical data...

Documentation

Showing up to 5 results
|